[[{"header":{"parameterUnit":"m.s-1","parameterCategory":1,"la1":30.2991,"la2":30.254,"lo1":-89.0895,"lo2":-89.0444,"dy":0.0017,"dx":0.0017,"nx":28,"ny":28,"refTime":"2024-06-27T09:00:00:Z","depth":0,"parameterNumber":2,"parameterNumberName":"U-component_of_WINDS"},"data":[0,0,0,0,0,0,0,0,0,0,0,0,0,0,0,0,0,0,0,0,0,0,0,0,0,0,0,0,0,0,0,0,0,0,0,0,0,0,0,0,0,0,0,0,0,0,0,0,0,0,0,0,0,0,0,0,0,0,2.4605,2.4607,0,2.4742,2.4743,2.4745,2.4746,2.4744,2.4743,2.4741,2.4886,2.4891,2.4896,0,0,0,0,0,0,0,0,0,0,0,0,0,2.435,2.4355,2.4605,2.4607,2.4609,2.4741,2.4743,2.4745,2.4747,2.4744,2.4742,2.474,2.4884,2.489,2.4897,0,0,0,0,0,0,0,0,0,0,0,0,0,2.4471,2.4356,2.4605,2.4625,2.4628,2.4741,2.4743,2.4746,2.4747,2.4744,2.4742,2.4739,2.4882,2.489,2.4898,2.5001,0,0,2.4923,2.4926,0,0,0,0,0,0,0,0,2.4464,2.4481,2.4621,2.4624,2.4628,2.4724,2.4706,2.4831,2.4748,2.4702,2.4741,2.4738,2.4834,2.4846,2.4878,2.5008,2.5014,2.4923,2.4928,2.4932,2.4934,0,0,0,0,0,0,0,2.4456,2.4475,2.4659,2.4623,2.4627,2.4629,2.4643,2.473,2.4781,2.4706,2.4706,2.4722,2.4836,2.487,2.4881,2.5016,2.4923,2.4931,2.4936,2.4939,2.5237,2.524,0,0,0,0,0,0,2.4443,2.4468,2.4655,2.4664,2.4538,2.4635,2.4651,2.4696,2.478,2.4791,2.4724,2.4722,2.4857,2.4872,2.4886,2.5012,2.4932,2.494,2.4944,2.5234,2.5237,2.5241,0,0,0,0,0,0,2.4437,2.446,2.465,2.4566,2.459,2.4643,2.4693,2.47,2.4734,2.4794,2.4804,2.4749,2.4856,2.4875,2.4972,2.5017,2.4943,2.4951,2.523,2.5235,2.5239,2.5265,0,0,0,0,0,0,2.443,2.4458,2.4496,2.4567,2.4594,2.4732,2.4695,2.4705,2.4748,2.4746,2.482,2.483,2.4855,2.496,2.498,2.5027,2.4957,2.5227,2.5232,2.5238,2.5261,2.527,2.5278,0,0,0,0,0,2.4421,2.45,2.4498,2.4521,2.4644,2.4735,2.4751,2.4776,2.4751,2.4791,2.483,2.4828,2.5009,2.4969,2.4993,2.5043,2.5224,2.5231,2.5237,2.5257,2.5268,2.5278,0,0,0,0,0,0,2.4436,2.4509,2.4509,2.4612,2.4667,2.4734,2.4786,2.4788,2.4852,2.4848,2.4878,2.4895,2.4992,2.5027,2.4982,2.5147,2.5113,2.5125,2.512,2.5132,2.5141,2.513,2.4964,0,0,0,0,0,2.445,2.4516,2.4578,2.4663,2.469,2.4733,2.4774,2.4788,2.4847,2.4871,2.4916,2.4975,2.5044,2.509,2.5158,2.5265,2.5282,2.5312,2.532,2.5327,2.5337,2.5397,2.5411,2.5263,2.5263,2.5263,0,0,2.4483,2.4531,2.4571,2.4667,2.4711,2.478,2.4753,2.4827,2.4879,2.4883,2.4977,2.5012,2.5079,2.5182,2.5229,2.5214,2.5381,2.5336,2.5341,2.5347,2.5405,2.5419,2.5431,2.5267,2.5267,2.5266,0,0,2.4577,2.4619,2.4695,2.4739,2.4805,2.4833,2.4851,2.4919,2.4942,2.5036,2.504,2.5103,2.5223,2.527,2.531,2.542,2.542,2.5441,2.5488,2.5545,2.5557,2.5567,2.5607,2.5621,2.5451,2.5451,2.5451,0,2.4609,2.4711,2.4734,2.4808,2.485,2.4855,2.4932,2.4974,2.506,2.509,2.5071,2.5221,2.5266,2.538,2.5406,2.5438,2.5461,2.5433,2.5553,2.5564,2.5574,2.5612,2.5627,2.5453,2.5453,2.5452,2.5452,0,2.4747,2.4818,2.4872,2.4952,2.5,2.5076,2.5111,2.5158,2.5168,2.5198,2.5294,2.5348,2.5427,2.5455,2.5466,2.557,2.5559,2.5546,2.5513,2.5589,2.5626,2.5641,2.5456,2.5455,2.5454,2.5454,0,0,2.4856,2.4947,2.4966,2.5002,2.5075,2.5131,2.5207,2.5281,2.5321,2.5379,2.5444,2.5545,2.5533,2.5578,2.5595,2.5645,2.5729,2.5627,2.5629,2.5644,2.5847,2.5856,2.5873,2.5729,2.5732,2.5734,2.5841,0,2.4958,2.509,2.5113,2.523,2.5296,2.53,2.5366,2.5418,2.5448,2.5509,2.5543,2.5613,2.5593,2.562,2.567,2.5708,2.577,2.5701,2.5791,2.5794,2.5774,2.5892,2.5902,2.6001,2.5856,2.5858,2.586,0,2.5095,2.5155,2.5277,2.534,2.5369,2.5428,2.5498,2.5556,2.5615,2.5634,2.5683,2.5693,2.5773,2.5735,2.5846,2.5798,2.5836,2.586,2.5865,2.5875,2.5832,2.5906,2.6033,2.6048,2.5883,2.5881,2.5879,0,2.5162,2.5273,2.5361,2.5392,2.5468,2.5509,2.5542,2.5599,2.5642,2.5704,2.5733,2.5803,2.5842,2.5897,2.5927,2.5897,2.6035,2.6,2.6054,2.6053,2.6084,2.6081,2.6219,2.6107,2.6107,2.6106,2.6106,0,2.5274,2.5349,2.5392,2.5446,2.553,2.5556,2.5639,2.5672,2.5722,2.5783,2.5792,2.585,2.5885,2.5948,2.5972,2.6059,2.6077,2.6095,2.61,2.6094,2.6092,2.6121,2.6115,2.611,2.6109,2.6109,2.6108,0,2.5363,2.5395,2.5491,2.5554,2.5571,2.5631,2.5685,2.5739,2.5767,2.5845,2.5865,2.5911,2.5985,2.6019,2.6112,2.6128,2.6228,2.6229,2.6208,2.621,2.6261,2.6256,2.6423,2.6446,2.6318,2.6319,2.632,0,2.5433,2.5491,2.5559,2.5599,2.5634,2.57,2.5743,2.577,2.5815,2.5887,2.5932,2.6006,2.6067,2.6186,2.6228,2.6299,2.6302,2.6355,2.6313,2.6305,2.6303,2.63,2.6306,2.6363,2.6365,2.6366,2.6367,0,2.5553,2.5566,2.5627,2.5695,2.5746,2.5801,2.5854,2.5888,2.5923,2.5974,2.6049,2.6096,2.6189,2.6263,2.6337,2.6373,2.6376,2.6379,2.6395,2.6391,2.6376,2.6385,2.6229,2.6376,2.6375,2.6374,2.6374,2.6373,2.5636,2.5687,2.5742,2.5811,2.5853,2.5903,2.5956,2.599,2.6053,2.613,2.6142,2.6222,2.628,2.6378,2.6417,2.6481,2.6468,2.6492,2.6498,2.6504,2.6506,2.6365,2.6494,2.6494,2.6494,2.6494,2.6494,0,2.5757,2.5792,2.5855,2.5928,2.5982,2.5978,2.6037,2.6083,2.6153,2.6205,2.6264,2.6351,2.6422,2.6469,2.6542,2.6584,2.6587,2.6602,2.66,2.6608,2.6513,2.6492,2.6598,2.6598,2.6598,2.6598,2.6598,2.6598,2.5826,2.5912,2.5931,2.6039,2.6074,2.6151,2.6185,2.6231,2.6273,2.6369,2.6427,2.6457,2.6508,2.6583,2.6649,2.6661,2.6688,2.6703,2.6715,2.6626,2.6615,2.6605,2.6585,2.6709,2.6709,2.6805,2.6806,2.6806]},{"header":{"parameterUnit":"m.s-1","parameterCategory":1,"la1":30.2991,"la2":30.254,"lo1":-89.0895,"lo2":-89.0444,"dy":0.0017,"dx":0.0017,"nx":28,"ny":28,"refTime":"2024-06-27T09:00:00:Z","depth":0,"parameterNumber":3,"parameterNumberName":"V-component_of_WINDS"},"data":[0,0,0,0,0,0,0,0,0,0,0,0,0,0,0,0,0,0,0,0,0,0,0,0,0,0,0,0,0,0,0,0,0,0,0,0,0,0,0,0,0,0,0,0,0,0,0,0,0,0,0,0,0,0,0,0,0,0,6.4528,6.453,0,6.4637,6.4638,6.464,6.4632,6.463,6.4629,6.4627,6.473,6.4735,6.4739,0,0,0,0,0,0,0,0,0,0,0,0,0,6.4305,6.4309,6.4528,6.453,6.4531,6.4637,6.4638,6.464,6.4632,6.463,6.4628,6.4627,6.4729,6.4734,6.4739,0,0,0,0,0,0,0,0,0,0,0,0,0,6.4407,6.4311,6.4528,6.454,6.4542,6.4637,6.4638,6.464,6.4633,6.463,6.4628,6.4626,6.4727,6.4734,6.474,6.4827,0,0,6.4759,6.4762,0,0,0,0,0,0,0,0,6.4401,6.4415,6.4537,6.454,6.4542,6.4619,6.4598,6.4702,6.4633,6.4598,6.4627,6.4624,6.4695,6.4704,6.4729,6.4831,6.4836,6.476,6.4764,6.4766,6.4768,0,0,0,0,0,0,0,6.4394,6.441,6.4571,6.4539,6.4542,6.4537,6.4549,6.4617,6.4658,6.4601,6.4601,6.4614,6.4695,6.4723,6.4731,6.4837,6.476,6.4765,6.4769,6.4772,6.5015,6.5017,0,0,0,0,0,0,6.4385,6.4404,6.4568,6.4574,6.4464,6.4543,6.4556,6.4596,6.4657,6.4665,6.4616,6.4613,6.4713,6.4724,6.4735,6.484,6.4766,6.4772,6.4776,6.5012,6.5015,6.5018,0,0,0,0,0,0,6.438,6.44,6.4563,6.4489,6.451,6.455,6.4594,6.46,6.4627,6.4669,6.4675,6.4637,6.4712,6.4726,6.4804,6.4843,6.4775,6.4781,6.5009,6.5013,6.5017,6.5051,0,0,0,0,0,0,6.4374,6.4398,6.4434,6.449,6.4514,6.4633,6.4597,6.4604,6.4639,6.4637,6.469,6.4697,6.4711,6.4795,6.481,6.4851,6.4786,6.5005,6.5011,6.5015,6.5046,6.5055,6.5063,0,0,0,0,0,6.4366,6.4437,6.4436,6.4455,6.456,6.4636,6.4649,6.4666,6.4642,6.4677,6.4703,6.4695,6.4837,6.4803,6.482,6.4863,6.5003,6.5009,6.5015,6.5042,6.5054,6.5063,0,0,0,0,0,0,6.4382,6.4445,6.4444,6.4536,6.4581,6.4634,6.4679,6.4677,6.4728,6.4723,6.4739,6.4751,6.483,6.4854,6.4815,6.4949,6.4916,6.4926,6.4931,6.4942,6.495,6.4942,6.4791,0,0,0,0,0,6.4396,6.4456,6.4507,6.4583,6.4606,6.4639,6.4672,6.4682,6.4728,6.4746,6.4778,6.4821,6.4874,6.4909,6.4961,6.505,6.506,6.5087,6.5096,6.5103,6.5111,6.5158,6.517,6.5038,6.5038,6.5038,0,0,6.4426,6.4468,6.4504,6.4587,6.4623,6.4682,6.4654,6.4717,6.476,6.4754,6.4831,6.4856,6.4904,6.4988,6.5026,6.501,6.515,6.511,6.5115,6.512,6.5165,6.5178,6.5189,6.5042,6.5041,6.504,0,0,6.4511,6.4549,6.4617,6.4654,6.471,6.4731,6.4747,6.4801,6.4818,6.4896,6.4892,6.4941,6.5034,6.5069,6.5098,6.5195,6.5189,6.5211,6.5255,6.5301,6.5311,6.5321,6.5354,6.5366,6.5219,6.5219,6.5219,0,6.454,6.4631,6.4651,6.4716,6.4751,6.4751,6.4818,6.4852,6.492,6.4943,6.4926,6.5042,6.5074,6.5165,6.5189,6.5213,6.523,6.5205,6.5309,6.5318,6.5327,6.5359,6.5372,6.5222,6.5222,6.5221,6.5221,0,6.4664,6.4727,6.4774,6.4844,6.4884,6.495,6.4976,6.5015,6.502,6.5042,6.512,6.5159,6.5219,6.5241,6.5246,6.5332,6.5321,6.5306,6.5273,6.5342,6.5372,6.5385,6.5225,6.5224,6.5224,6.5223,0,0,6.4762,6.4842,6.4859,6.489,6.4951,6.4998,6.5062,6.5123,6.5155,6.5201,6.5254,6.5332,6.5319,6.5352,6.5361,6.5401,6.5474,6.5381,6.5382,6.5396,6.557,6.5581,6.5595,6.547,6.5473,6.5475,6.5566,0,6.4852,6.4969,6.4988,6.509,6.5147,6.5147,6.5202,6.5244,6.5266,6.5315,6.5338,6.5394,6.5372,6.5392,6.5432,6.5457,6.5509,6.5451,6.5517,6.5519,6.5505,6.5611,6.5623,6.5707,6.5578,6.558,6.5581,0,6.4974,6.5027,6.5134,6.5187,6.5212,6.5262,6.5318,6.5367,6.5413,6.5425,6.5463,6.5467,6.553,6.5495,6.5581,6.5541,6.5568,6.5585,6.5588,6.5594,6.5554,6.5619,6.5734,6.5746,6.56,6.5599,6.5597,0,6.5033,6.5131,6.5208,6.5234,6.5298,6.5333,6.5361,6.5405,6.544,6.5488,6.5511,6.5565,6.5594,6.5635,6.5652,6.5625,6.5736,6.5702,6.5747,6.5746,6.577,6.5768,6.589,6.5789,6.5789,6.5788,6.5788,0,6.5132,6.5198,6.5236,6.5283,6.5356,6.5376,6.5446,6.5472,6.5511,6.5561,6.5564,6.561,6.563,6.5679,6.5692,6.5761,6.5774,6.5784,6.5787,6.5784,6.5783,6.5802,6.5796,6.5792,6.5791,6.579,6.579,0,6.5211,6.5239,6.5323,6.5377,6.5392,6.5443,6.5488,6.5532,6.5554,6.5617,6.5633,6.5666,6.5723,6.5745,6.5813,6.5822,6.5901,6.5899,6.5887,6.5887,6.593,6.5926,6.6068,6.6087,6.5974,6.5975,6.5976,0,6.5272,6.5323,6.5383,6.5418,6.5448,6.5504,6.5541,6.5561,6.5598,6.5655,6.5692,6.5749,6.5797,6.5888,6.5916,6.5968,6.5967,6.6013,6.5975,6.597,6.5967,6.5963,6.5968,6.602,6.6021,6.6022,6.6023,0,6.5377,6.5389,6.5443,6.5502,6.5546,6.5593,6.5637,6.5665,6.5692,6.5733,6.5794,6.583,6.5902,6.5958,6.6012,6.6037,6.6034,6.6035,6.6048,6.6045,6.6036,6.6041,6.5906,6.6032,6.6031,6.603,6.603,6.6029,6.5449,6.5494,6.5543,6.5603,6.5639,6.5681,6.5726,6.5754,6.5805,6.5867,6.5875,6.5939,6.5982,6.6054,6.6082,6.613,6.6117,6.6136,6.614,6.6145,6.6148,6.6029,6.614,6.6139,6.6139,6.6139,6.6139,0,6.5553,6.5585,6.564,6.5705,6.5751,6.5747,6.5796,6.5834,6.5892,6.5933,6.5981,6.6048,6.6103,6.6136,6.619,6.6222,6.6222,6.6235,6.6233,6.6238,6.6156,6.614,6.6235,6.6235,6.6235,6.6235,6.6235,6.6234,6.5613,6.5689,6.5706,6.5799,6.583,6.5895,6.5924,6.5961,6.5995,6.6072,6.6118,6.614,6.6177,6.6234,6.6283,6.6291,6.631,6.6325,6.6331,6.6254,6.6244,6.6235,6.6219,6.6329,6.6329,6.6409,6.641,6.641]}]]